DW1283 Weather Reports


time (UTC)temp
C
wind
direction
speed
KPH
gust
KPH
rain 1hr
cm
rain 24hr
cm
rain mn
cm
humidity
%
barometer
mb
20260507191540 18 279 6.4 0.0 0.00 0.00 0.10 31 1003.6
20260507190038 18 277 3.2 0.0 0.00 0.00 0.10 30 1003.5
20260507184537 18 260 9.7 0.0 0.00 0.00 0.10 29 1003.9
20260507183036 18 286 4.8 0.0 0.00 0.00 0.10 29 1004.0
20260507181535 18 301 6.4 0.0 0.00 0.00 0.10 29 1004.1
20260507180035 18 281 8.0 0.0 0.00 0.00 0.10 29 1004.1
20260507174530 18 272 4.8 0.0 0.00 0.00 0.10 31 1004.1
20260507173030 18 247 3.2 0.0 0.00 0.00 0.10 35 1004.1
20260507171525 17 291 4.8 0.0 0.00 0.00 0.10 35 1004.1
20260507170053 17 338 4.8 0.0 0.00 0.00 0.10 37 1004.6
20260507164552 17 279 8.0 0.0 0.00 0.00 0.10 35 1004.6
20260507163023 17 269 6.4 0.0 0.00 0.00 0.10 41 1004.7
20260507161519 16 302 6.4 0.0 0.00 0.00 0.10 42 1004.7
20260507160045 16 184 1.6 0.0 0.00 0.00 0.10 47 1004.9
20260507154543 15 273 4.8 0.0 0.00 0.00 0.10 51 1005.1
20260507153011 15 266 6.4 0.0 0.00 0.00 0.10 53 1005.0
20260507151508 15 263 3.2 0.0 0.00 0.00 0.10 55 1005.0
20260507150009 14 297 6.4 0.0 0.00 0.00 0.10 57 1005.3
20260507144505 14 307 4.8 0.0 0.00 0.00 0.10 56 1005.6
20260507143003 15 243 0.0 0.0 0.00 0.00 0.10 57 1005.5
20260507141502 15 295 3.2 0.0 0.00 0.00 0.10 56 1005.5
20260507140110 14 259 3.2 0.0 0.00 0.00 0.10 58 1005.7
20260507134556 14 347 1.6 0.0 0.00 0.00 0.10 59 1005.5
20260507133054 13 293 3.2 0.0 0.00 0.00 0.10 62 1005.6
20260507131554 12 296 6.4 0.0 0.00 0.00 0.10 63 1005.8
20260507130049 12 273 3.2 0.0 0.00 0.00 0.10 67 1005.9
20260507124547 11 311 3.2 0.0 0.00 0.00 0.10 72 1006.1
20260507123046 10 311 3.2 0.0 0.00 0.00 0.10 77 1006.1
20260507121545 10 259 4.8 0.0 0.00 0.00 0.10 77 1006.1
20260507120012 9 301 3.2 0.0 0.00 0.00 0.10 82 1006.0
20260507114511 8 288 0.0 0.0 0.00 0.00 0.10 85 1006.0
20260507113008 8 288 0.0 0.0 0.00 0.00 0.10 86 1005.9
20260507111510 8 288 0.0 0.0 0.00 0.00 0.10 87 1006.0
20260507110012 8 288 0.0 0.0 0.00 0.00 0.10 87 1005.4
20260507104506 8 288 0.0 0.0 0.00 0.00 0.10 86 1005.9
20260507103005 8 288 0.0 0.0 0.00 0.00 0.10 85 1005.2
20260507101503 8 289 0.0 0.0 0.00 0.00 0.10 85 1005.1
20260507094603 8 290 1.6 0.0 0.00 0.00 0.10 85 1004.7
20260507093055 8 259 1.6 0.0 0.00 0.00 0.10 86 1005.2
20260507091602 8 279 0.0 0.0 0.00 0.00 0.08 86 1005.1
20260507090109 8 286 0.0 0.0 0.00 0.00 0.08 86 1005.5
20260507084549 9 283 0.0 0.0 0.00 0.00 0.08 86 1005.3
20260507083044 9 284 0.0 0.0 0.00 0.00 0.08 86 1005.2
20260507081551 10 308 0.0 0.0 0.00 0.00 0.05 86 1004.7
20260507080037 10 309 0.0 0.0 0.00 0.00 0.05 86 1004.7
20260507074540 10 309 0.0 0.0 0.00 0.00 0.05 85 1005.2
20260507073036 10 297 4.8 0.0 0.00 0.00 0.03 84 1005.1
20260507071529 11 270 1.6 0.0 0.00 0.00 0.03 85 1004.2
20260507070027 11 289 0.0 0.0 0.00 0.00 0.03 85 1004.3
20260507064526 11 290 0.0 0.0 0.00 0.00 0.03 85 1004.1
20260507063018 11 278 1.6 0.0 0.00 0.00 0.03 86 1004.2
20260507061528 11 294 0.0 0.0 0.00 0.00 0.03 87 1004.3
20260507060026 11 296 1.6 0.0 0.00 0.00 0.03 86 1004.2
20260507054513 12 293 1.6 0.0 0.00 0.00 0.03 86 1004.3
20260507053014 12 294 1.6 0.0 0.00 0.00 0.03 86 1004.6
20260507051507 12 302 4.8 0.0 0.00 0.00 0.03 86 1004.6
20260507050006 12 263 3.2 0.0 0.00 0.00 0.03 87 1004.4
20260507044501 12 277 0.0 0.0 0.00 0.00 0.03 88 1004.8
20260507043058 13 267 4.8 0.0 0.00 0.00 0.03 88 1004.5
20260507041551 13 293 3.2 0.0 0.00 0.00 0.03 90 1004.4
20260507040051 13 281 0.0 0.0 0.00 0.00 0.00 91 1004.4
20260507034549 13 242 0.0 0.0 0.00 0.00 0.36 92 1004.3
20260507033046 14 271 0.0 0.0 0.00 0.00 0.36 92 1004.1
20260507031543 14 259 3.2 0.0 0.00 0.00 0.36 92 1003.9
20260507030046 14 217 0.0 0.0 0.00 0.00 0.36 92 1003.7
20260507024543 14 214 1.6 0.0 0.00 0.00 0.33 92 1003.2
20260507023041 14 263 0.0 0.0 0.00 0.00 0.33 92 1003.5
20260507021510 14 240 1.6 0.0 0.00 0.00 0.33 92 1003.4
20260507020011 14 244 1.6 0.0 0.00 0.00 0.33 92 1003.5
20260507014507 14 206 1.6 0.0 0.00 0.00 0.33 92 1003.3
20260507013006 14 207 3.2 0.0 0.00 0.00 0.33 92 1003.5
20260507011505 14 209 3.2 0.0 0.00 0.00 0.33 92 1003.5
20260507010005 14 209 3.2 0.0 0.00 0.00 0.33 92 1003.7
20260507004533 14 208 4.8 0.0 0.00 0.00 0.33 92 1003.7
20260507003032 14 204 3.2 0.0 0.00 0.00 0.33 92 1003.6
20260507001529 14 213 4.8 0.0 0.00 0.00 0.33 92 1003.5
20260507000029 14 191 3.2 0.0 0.00 0.00 0.33 92 1003.5
20260506234526 14 192 1.6 0.0 0.00 0.00 0.33 92 1003.2
20260506233025 15 199 0.0 0.0 0.00 0.00 0.33 91 1003.2
20260506231523 15 198 3.2 0.0 0.00 0.00 0.33 91 1003.1
20260506230020 15 203 3.2 0.0 0.00 0.00 0.23 90 1003.4
20260506224518 15 213 4.8 0.0 0.00 0.00 0.23 90 1003.4
20260506223017 15 180 3.2 0.0 0.00 0.00 0.20 90 1003.3
20260506221512 15 248 4.8 0.0 0.00 0.00 0.20 89 1003.5
20260506220012 15 202 3.2 0.0 0.00 0.00 0.18 89 1003.7
20260506214510 15 199 1.6 0.0 0.00 0.00 0.18 89 1003.8
20260506213014 15 190 3.2 0.0 0.00 0.00 0.18 88 1004.0
20260506211538 15 238 8.0 0.0 0.00 0.00 0.18 88 1004.2
20260506210035 15 216 8.0 0.0 0.00 0.00 0.18 87 1004.1
20260506204532 15 211 8.0 0.0 0.00 0.00 0.18 87 1004.3
20260506203032 15 196 6.4 0.0 0.00 0.00 0.15 86 1004.4
20260506201542 15 189 3.2 0.0 0.00 0.00 0.13 85 1004.4
20260506200031 16 190 8.0 0.0 0.00 0.00 0.13 83 1004.2
20260506194559 16 202 4.8 0.0 0.00 0.00 0.10 82 1004.3
20260506193057 17 212 4.8 0.0 0.00 0.00 0.08 79 1004.3